| time (UTC) | temp C | wind direction | speed KPH | gust KPH | rain 1hr cm | rain 24hr cm | rain mn cm | humidity % | barometer mb |
| 20260902234538 | 17 | 162 | 0.0 | 1.6 | 0.00 | 0.08 | 0.08 | 100 | 1019.5 |
| 20260902233031 | 17 | 155 | 0.0 | 3.2 | 0.00 | 0.08 | 0.08 | 100 | 1019.4 |
| 20260902231546 | 17 | 155 | 0.0 | 3.2 | 0.00 | 0.08 | 0.08 | 100 | 1019.4 |
| 20260902230033 | 17 | 164 | 0.0 | 3.2 | 0.00 | 0.08 | 0.08 | 100 | 1019.8 |
| 20260902224529 | 17 | 153 | 0.0 | 3.2 | 0.00 | 0.08 | 0.08 | 100 | 1019.5 |
| 20260902223029 | 17 | 174 | 1.6 | 4.8 | 0.00 | 0.08 | 0.08 | 100 | 1019.6 |
| 20260902221528 | 17 | 171 | 0.0 | 3.2 | 0.00 | 0.08 | 0.08 | 100 | 1020.0 |
| 20260902220028 | 17 | 147 | 0.0 | 4.8 | 0.00 | 0.08 | 0.08 | 100 | 1019.9 |
| 20260902214530 | 17 | 179 | 0.0 | 3.2 | 0.00 | 0.15 | 0.08 | 100 | 1020.0 |
| 20260902213026 | 17 | 153 | 0.0 | 1.6 | 0.00 | 0.15 | 0.08 | 100 | 1020.0 |
| 20260902211531 | 17 | 149 | 0.0 | 3.2 | 0.00 | 0.15 | 0.08 | 100 | 1020.0 |
| 20260902210026 | 17 | 149 | 0.0 | 0.0 | 0.00 | 0.15 | 0.08 | 100 | 1020.2 |
| 20260902204525 | 17 | 153 | 0.0 | 0.0 | 0.00 | 0.15 | 0.08 | 100 | 1020.1 |
| 20260902203024 | 17 | 157 | 0.0 | 0.0 | 0.00 | 0.15 | 0.08 | 100 | 1020.3 |
| 20260902201625 | 17 | 153 | 0.0 | 3.2 | 0.00 | 0.15 | 0.08 | 100 | 1020.0 |
| 20260902200022 | 17 | 161 | 0.0 | 3.2 | 0.00 | 0.15 | 0.08 | 100 | 1019.8 |
| 20260902194523 | 17 | 153 | 0.0 | 1.6 | 0.00 | 0.15 | 0.08 | 100 | 1019.9 |
| 20260902193021 | 17 | 245 | 0.0 | 1.6 | 0.03 | 0.15 | 0.08 | 100 | 1020.2 |
| 20260902191528 | 17 | 288 | 0.0 | 0.0 | 0.05 | 0.15 | 0.08 | 100 | 1020.5 |
| 20260902190018 | 17 | 292 | 0.0 | 0.0 | 0.05 | 0.15 | 0.08 | 100 | 1020.8 |
| 20260902184518 | 16 | 292 | 0.0 | 0.0 | 0.05 | 0.15 | 0.08 | 100 | 1020.9 |
| 20260902183021 | 16 | 292 | 0.0 | 1.6 | 0.03 | 0.13 | 0.05 | 100 | 1021.1 |
| 20260902181516 | 16 | 323 | 0.0 | 3.2 | 0.03 | 0.10 | 0.03 | 100 | 1021.6 |
| 20260902180015 | 16 | 141 | 0.0 | 0.0 | 0.03 | 0.10 | 0.03 | 100 | 1021.0 |
| 20260902174517 | 16 | 141 | 0.0 | 1.6 | 0.03 | 0.10 | 0.03 | 100 | 1021.1 |
| 20260902173017 | 16 | 141 | 0.0 | 0.0 | 0.03 | 0.10 | 0.03 | 100 | 1020.9 |
| 20260902171514 | 16 | 153 | 0.0 | 0.0 | 0.00 | 0.08 | 0.00 | 100 | 1020.7 |
| 20260902170015 | 16 | 163 | 0.0 | 1.6 | 0.00 | 0.08 | 0.00 | 100 | 1021.0 |
| 20260902164512 | 16 | 162 | 0.0 | 1.6 | 0.00 | 0.08 | 0.00 | 100 | 1021.0 |
| 20260902163012 | 16 | 158 | 0.0 | 3.2 | 0.00 | 0.08 | 0.00 | 100 | 1020.8 |
| 20260902161518 | 16 | 150 | 0.0 | 1.6 | 0.00 | 0.08 | 0.00 | 100 | 1021.1 |
| 20260902160012 | 16 | 152 | 0.0 | 0.0 | 0.00 | 0.08 | 0.00 | 100 | 1021.4 |
| 20260902154523 | 16 | 152 | 0.0 | 1.6 | 0.00 | 0.13 | 0.00 | 100 | 1021.2 |
| 20260902153010 | 16 | 200 | 0.0 | 0.0 | 0.00 | 0.13 | 0.00 | 100 | 1021.0 |
| 20260902151510 | 16 | 200 | 0.0 | 0.0 | 0.00 | 0.13 | 0.00 | 100 | 1021.3 |
| 20260902150009 | 16 | 252 | 0.0 | 0.0 | 0.00 | 0.13 | 0.00 | 100 | 1021.4 |
| 20260902144525 | 16 | 255 | 0.0 | 1.6 | 0.00 | 0.46 | 0.00 | 100 | 1021.7 |
| 20260902143006 | 16 | 191 | 0.0 | 1.6 | 0.00 | 0.46 | 0.00 | 100 | 1021.3 |
| 20260902141510 | 16 | 142 | 0.0 | 3.2 | 0.00 | 0.46 | 0.00 | 100 | 1020.9 |
| 20260902140010 | 16 | 149 | 0.0 | 1.6 | 0.00 | 0.46 | 0.00 | 100 | 1020.8 |
| 20260902134511 | 16 | 146 | 0.0 | 3.2 | 0.00 | 0.48 | 0.00 | 100 | 1021.1 |
| 20260902133004 | 16 | 163 | 0.0 | 1.6 | 0.00 | 0.48 | 0.00 | 100 | 1021.2 |
| 20260902131501 | 16 | 150 | 0.0 | 3.2 | 0.00 | 0.48 | 0.00 | 100 | 1020.9 |
| 20260902130001 | 16 | 154 | 0.0 | 0.0 | 0.00 | 0.48 | 0.00 | 100 | 1020.8 |
| 20260902124607 | 16 | 154 | 0.0 | 0.0 | 0.00 | 0.48 | 0.00 | 100 | 1020.6 |
| 20260902123102 | 16 | 154 | 0.0 | 1.6 | 0.00 | 0.48 | 0.00 | 100 | 1020.6 |
| 20260902121608 | 16 | 155 | 0.0 | 1.6 | 0.00 | 0.48 | 0.00 | 100 | 1020.5 |
| 20260902120056 | 16 | 154 | 0.0 | 1.6 | 0.00 | 0.48 | 0.00 | 100 | 1020.0 |
| 20260902114556 | 16 | 152 | 0.0 | 3.2 | 0.00 | 0.51 | 0.00 | 100 | 1020.3 |
| 20260902113105 | 16 | 191 | 0.0 | 0.0 | 0.00 | 0.51 | 0.00 | 100 | 1020.2 |
| 20260902111556 | 16 | 158 | 0.0 | 4.8 | 0.00 | 0.51 | 0.00 | 100 | 1020.1 |
| 20260902110056 | 16 | 158 | 0.0 | 3.2 | 0.00 | 0.51 | 0.00 | 100 | 1019.9 |
| 20260902104556 | 16 | 134 | 0.0 | 3.2 | 0.00 | 0.79 | 0.00 | 100 | 1020.0 |
| 20260902103050 | 16 | 150 | 0.0 | 1.6 | 0.00 | 0.79 | 0.00 | 100 | 1019.8 |
| 20260902101559 | 16 | 149 | 0.0 | 3.2 | 0.00 | 0.79 | 0.00 | 100 | 1020.0 |
| 20260902100105 | 16 | 147 | 0.0 | 3.2 | 0.00 | 0.79 | 0.00 | 100 | 1020.0 |
| 20260902094549 | 16 | 150 | 0.0 | 0.0 | 0.00 | 0.79 | 0.00 | 100 | 1019.8 |
| 20260902093050 | 16 | 151 | 0.0 | 1.6 | 0.00 | 0.79 | 0.00 | 100 | 1019.7 |
| 20260902091546 | 16 | 145 | 0.0 | 1.6 | 0.00 | 0.79 | 0.00 | 100 | 1019.5 |
| 20260902090045 | 16 | 152 | 0.0 | 0.0 | 0.00 | 0.79 | 0.00 | 100 | 1019.3 |
| 20260902084556 | 16 | 152 | 0.0 | 0.0 | 0.00 | 0.79 | 0.00 | 100 | 1019.3 |
| 20260902083045 | 16 | 152 | 0.0 | 0.0 | 0.00 | 0.79 | 0.00 | 100 | 1019.0 |
| 20260902081542 | 16 | 154 | 0.0 | 1.6 | 0.00 | 0.79 | 0.00 | 100 | 1018.9 |
| 20260902080040 | 16 | 149 | 0.0 | 1.6 | 0.00 | 0.79 | 0.00 | 100 | 1018.9 |
| 20260902074540 | 16 | 150 | 0.0 | 3.2 | 0.00 | 0.79 | 0.00 | 100 | 1018.8 |
| 20260902073049 | 16 | 149 | 0.0 | 1.6 | 0.00 | 0.79 | 0.00 | 100 | 1018.9 |
| 20260902071540 | 16 | 144 | 0.0 | 1.6 | 0.00 | 0.79 | 0.00 | 100 | 1018.6 |
| 20260902070039 | 16 | 147 | 0.0 | 1.6 | 0.00 | 0.79 | 0.00 | 100 | 1018.6 |
| 20260902064543 | 16 | 191 | 0.0 | 3.2 | 0.00 | 0.81 | 0.00 | 100 | 1018.6 |
| 20260902063041 | 16 | 141 | 0.0 | 3.2 | 0.00 | 0.81 | 0.00 | 99 | 1018.6 |
| 20260902061532 | 16 | 124 | 1.6 | 3.2 | 0.00 | 0.81 | 0.00 | 100 | 1018.6 |
| 20260902060034 | 16 | 165 | 1.6 | 4.8 | 0.00 | 0.81 | 0.00 | 100 | 1018.7 |
| 20260902054531 | 17 | 160 | 0.0 | 4.8 | 0.00 | 0.81 | 0.00 | 100 | 1018.9 |
| 20260902053029 | 17 | 143 | 0.0 | 3.2 | 0.00 | 0.81 | 0.00 | 100 | 1019.1 |
| 20260902051528 | 17 | 147 | 0.0 | 3.2 | 0.00 | 0.81 | 0.00 | 99 | 1018.9 |
| 20260902050025 | 17 | 149 | 0.0 | 3.2 | 0.00 | 0.81 | 0.00 | 99 | 1019.0 |
| 20260902044522 | 17 | 149 | 0.0 | 3.2 | 0.00 | 0.81 | 0.00 | 99 | 1018.7 |
| 20260902043022 | 17 | 172 | 0.0 | 3.2 | 0.00 | 0.81 | 0.00 | 99 | 1018.8 |
| 20260902041519 | 17 | 155 | 0.0 | 3.2 | 0.00 | 0.81 | 0.00 | 99 | 1018.7 |
| 20260902040016 | 17 | 165 | 0.0 | 6.4 | 0.00 | 0.81 | 0.00 | 99 | 1018.5 |
| 20260902034512 | 18 | 177 | 0.0 | 4.8 | 0.00 | 1.14 | 0.00 | 99 | 1018.4 |
| 20260902033010 | 18 | 146 | 0.0 | 1.6 | 0.00 | 1.14 | 0.00 | 99 | 1018.0 |
| 20260902031509 | 18 | 162 | 0.0 | 1.6 | 0.00 | 1.14 | 0.00 | 99 | 1018.0 |
| 20260902030011 | 19 | 162 | 0.0 | 4.8 | 0.00 | 1.14 | 0.00 | 99 | 1017.5 |
| 20260902024508 | 20 | 159 | 0.0 | 1.6 | 0.00 | 1.24 | 0.00 | 99 | 1017.6 |
| 20260902023009 | 20 | 160 | 0.0 | 0.0 | 0.00 | 1.24 | 0.00 | 99 | 1017.3 |
| 20260902021507 | 20 | 149 | 0.0 | 3.2 | 0.00 | 1.24 | 0.00 | 99 | 1017.2 |
| 20260902020009 | 21 | 148 | 0.0 | 1.6 | 0.00 | 1.24 | 0.00 | 99 | 1016.8 |
| 20260902014522 | 21 | 145 | 0.0 | 0.0 | 0.00 | 1.24 | 0.00 | 99 | 1016.7 |
| 20260902013008 | 21 | 145 | 0.0 | 0.0 | 0.00 | 1.24 | 0.00 | 99 | 1016.7 |
| 20260902011511 | 21 | 145 | 0.0 | 0.0 | 0.00 | 1.24 | 0.00 | 99 | 1016.8 |
| 20260902010005 | 21 | 146 | 0.0 | 1.6 | 0.00 | 1.24 | 0.00 | 99 | 1016.5 |
| 20260902004504 | 21 | 146 | 0.0 | 1.6 | 0.00 | 1.24 | 0.00 | 99 | 1016.3 |
| 20260902003003 | 21 | 143 | 1.6 | 3.2 | 0.00 | 1.24 | 0.00 | 98 | 1015.7 |
| 20260902001503 | 21 | 145 | 0.0 | 3.2 | 0.00 | 1.24 | 0.00 | 98 | 1016.0 |
| 20260902000003 | 21 | 138 | 0.0 | 0.0 | 0.00 | 1.24 | 0.00 | 98 | 1016.0 |